Weather History for Lapeer, MI

Change the Weather History Date:

Saturday, August 17, 2013

  Actual Average (KFNT) Record (KFNT)
Temperature  
Mean Temperature 62 °F 69 °F  
Max Temperature 78 °F 80 °F 96 °F (1988)
Min Temperature 45 °F 58 °F 43 °F (1954)
Degree Days  
Heating Degree Days 4 1  
Month to date heating degree days 16  
Since 1 June heating degree days 97  
Since 1 July heating degree days 31  
Cooling Degree Days 0 5  
Month to date cooling degree days 90  
Year to date cooling degree days 421  
Since 1 June cooling degree days 389  
Growing Degree Days 12 (Base 50)    
Moisture  
Dew Point 53 °F    
Average Humidity 73    
Maximum Humidity 98    
Minimum Humidity 38    
Precipitation  
Precipitation 0.00 in 0.10 in 3.78 in (1995)
Month to date precipitation 1.77  
Year to date precipitation 19.15  
Snow  
Snow 0.00 in 0.00 in 0.00 in ()
Month to date snowfall 0.0  
Since 1 June snowfall 0.0  
Since 1 July snowfall 0.0  
Snow Depth -    
Sea Level Pressure  
Sea Level Pressure 30.25 in    
Wind  
Wind Speed 1 mph (ESE)    
Max Wind Speed 7 mph    
Max Gust Speed -    
Visibility 9 miles    
Events      
T = Trace of Precipitation, MM = Missing Value Source: NWS Daily Summary

Daily Weather History Graph

Daily Weather History Graph

Search for Another Location

Airport:

Trip Planner

Search our weather history database for the weather conditions in past years. The results will help you decide how hot, cold, wet, or windy it might be!

Date:

Astronomy

Aug. 17, 2013 Rise Set
Actual Time 6:41 AM EDT 8:32 PM EDT
Civil Twilight 6:10 AM EDT 9:02 PM EDT
Nautical Twilight 5:33 AM EDT 9:39 PM EDT
Astronomical Twilight 4:53 AM EDT 10:19 PM EDT
Moon 5:49 PM EDT (8/17) 2:40 AM EDT (8/17)
Length of Visible Light 14h 51m
Length of Day
13h 50m
Waxing Gibbous, 84% of the Moon is Illuminated
Aug 17
Waxing Gibbous
Aug 20
Full
Aug 28
Last Quarter
Sep 5
New
Sep 12
First Quarter

Hourly Weather History & Observations

Time (EDT) Temp. Dew Point Humidity Pressure Visibility Wind Dir Wind Speed Gust Speed Precip Events Conditions
12:14 AM 52.9 °F 51.4 °F 95% 30.23 in 10.0 mi Calm Calm - N/A   Clear
12:33 AM 52.2 °F 50.7 °F 95% 30.24 in 7.0 mi Calm Calm - N/A   Clear
12:54 AM 52.3 °F 51.1 °F 95% 30.24 in 10.0 mi Calm Calm - N/A   Clear
1:14 AM 51.3 °F 50.0 °F 95% 30.24 in 7.0 mi Calm Calm - N/A   Clear
1:33 AM 49.8 °F 48.6 °F 95% 30.24 in 5.0 mi Calm Calm - N/A   Clear
1:54 AM 50.5 °F 49.5 °F 96% 30.24 in 0.8 mi Calm Calm - N/A   Mist
2:14 AM 49.1 °F 48.2 °F 97% 30.24 in 7.0 mi Calm Calm - N/A   Clear
2:33 AM 50.4 °F 49.5 °F 97% 30.24 in 5.0 mi Calm Calm - N/A   Clear
2:54 AM 49.6 °F 48.7 °F 97% 30.24 in 10.0 mi Calm Calm - N/A   Clear
3:14 AM 48.9 °F 47.8 °F 96% 30.24 in 5.0 mi Calm Calm - N/A   Clear
3:33 AM 48.9 °F 47.7 °F 95% 30.24 in 7.0 mi Calm Calm - N/A   Clear
3:54 AM 48.9 °F 47.5 °F 95% 30.25 in 7.0 mi Calm Calm - N/A   Clear
4:14 AM 48.7 °F 48.0 °F 97% 30.25 in 7.0 mi Calm Calm - N/A   Clear
4:33 AM 47.1 °F 46.0 °F 96% 30.25 in 7.0 mi Calm Calm - N/A   Clear
4:54 AM 46.9 °F 46.2 °F 97% 30.25 in 7.0 mi Calm Calm - N/A   Clear
5:14 AM 48.0 °F 47.3 °F 97% 30.25 in 5.0 mi Calm Calm - N/A   Clear
5:33 AM 47.5 °F 46.8 °F 97% 30.25 in 2.5 mi Calm Calm - N/A   Clear
5:54 AM 47.1 °F 46.4 °F 97% 30.26 in 4.0 mi Calm Calm - N/A   Clear
6:13 AM 46.8 °F 45.5 °F 95% 30.26 in 10.0 mi Calm Calm - N/A   Clear
6:34 AM 45.5 °F 44.6 °F 97% 30.26 in 5.0 mi Calm Calm - N/A   Clear
6:54 AM 46.9 °F 46.4 °F 98% 30.27 in 2.5 mi Calm Calm - N/A   Clear
7:13 AM 46.8 °F 46.0 °F 97% 30.27 in 10.0 mi Calm Calm - N/A   Clear
7:34 AM 48.4 °F 47.5 °F 97% 30.28 in 10.0 mi Calm Calm - N/A   Clear
7:54 AM 50.9 °F 50.2 °F 97% 30.28 in 10.0 mi Calm Calm - N/A   Clear
8:13 AM 53.2 °F 51.6 °F 94% 30.28 in 10.0 mi Calm Calm - N/A   Clear
8:34 AM 56.5 °F 54.0 °F 91% 30.28 in 10.0 mi Calm Calm - N/A   Clear
8:54 AM 58.8 °F 55.8 °F 90% 30.28 in 10.0 mi Calm Calm - N/A   Clear
9:13 AM 61.7 °F 57.4 °F 86% 30.28 in 10.0 mi Calm Calm - N/A   Clear
9:34 AM 65.7 °F 59.2 °F 80% 30.28 in 10.0 mi Calm Calm - N/A   Clear
9:54 AM 68.0 °F 56.3 °F 66% 30.28 in 10.0 mi Calm Calm - N/A   Clear
10:13 AM 69.3 °F 56.8 °F 65% 30.29 in 10.0 mi Calm Calm - N/A   Clear
10:34 AM 70.5 °F 57.0 °F 62% 30.29 in 10.0 mi SSE 4.6 mph - N/A   Clear
10:54 AM 71.8 °F 55.2 °F 56% 30.29 in 10.0 mi SSE 4.6 mph - N/A   Clear
11:13 AM 72.5 °F 53.8 °F 52% 30.29 in 10.0 mi SE 4.6 mph - N/A   Clear
11:34 AM 72.5 °F 53.1 °F 50% 30.30 in 10.0 mi ESE 3.5 mph - N/A   Clear
11:54 AM 73.6 °F 49.8 °F 43% 30.29 in 10.0 mi ESE 4.6 mph - N/A   Clear
12:13 PM 74.3 °F 47.1 °F 38% 30.28 in 10.0 mi SE 3.5 mph - N/A   Clear
12:34 PM 74.7 °F 50.4 °F 42% 30.28 in 10.0 mi NE 3.5 mph - N/A   Clear
12:54 PM 75.0 °F 50.4 °F 42% 30.28 in 10.0 mi Calm Calm - N/A   Clear
1:13 PM 75.7 °F 50.7 °F 41% 30.27 in 10.0 mi NE 6.9 mph - N/A   Clear
1:34 PM 76.3 °F 50.5 °F 40% 30.27 in 10.0 mi NE 3.5 mph - N/A   Clear
1:54 PM 76.6 °F 49.6 °F 39% 30.26 in 10.0 mi Calm Calm - N/A   Clear
2:13 PM 77.0 °F 51.3 °F 40% 30.26 in 10.0 mi Calm Calm - N/A   Clear
2:34 PM 76.8 °F 50.9 °F 40% 30.25 in 10.0 mi Calm Calm - N/A   Clear
2:54 PM 77.0 °F 52.3 °F 42% 30.25 in 10.0 mi Calm Calm - N/A   Clear
3:13 PM 77.5 °F 54.5 °F 45% 30.24 in 10.0 mi ESE 6.9 mph - N/A   Clear
3:34 PM 78.4 °F 53.1 °F 41% 30.24 in 10.0 mi Calm Calm - N/A   Clear
3:53 PM 77.5 °F 53.2 °F 43% 30.23 in 10.0 mi NNE 3.5 mph - N/A   Scattered Clouds
4:13 PM 77.7 °F 54.0 °F 44% 30.23 in 10.0 mi ENE 5.8 mph - N/A   Scattered Clouds
4:34 PM 76.5 °F 53.2 °F 44% 30.23 in 10.0 mi Calm Calm - N/A   Scattered Clouds
4:53 PM 78.1 °F 53.1 °F 42% 30.23 in 10.0 mi ESE 3.5 mph - N/A   Scattered Clouds
5:14 PM 77.7 °F 53.8 °F 43% 30.23 in 10.0 mi SE 3.5 mph - N/A   Clear
5:34 PM 78.3 °F 54.0 °F 43% 30.23 in 10.0 mi East 5.8 mph - N/A   Scattered Clouds
5:53 PM 75.2 °F 56.1 °F 51% 30.22 in 10.0 mi Calm Calm - N/A   Scattered Clouds
6:14 PM 77.7 °F 52.3 °F 41% 30.22 in 10.0 mi Calm Calm - N/A   Clear
6:34 PM 77.0 °F 54.0 °F 45% 30.22 in 10.0 mi SE 3.5 mph - N/A   Clear
6:53 PM 76.3 °F 56.3 °F 50% 30.21 in 10.0 mi ESE 3.5 mph - N/A   Clear
7:14 PM 74.3 °F 55.8 °F 52% 30.21 in 10.0 mi East 3.5 mph - N/A   Clear
7:34 PM 72.1 °F 59.5 °F 64% 30.22 in 10.0 mi Calm Calm - N/A   Scattered Clouds
7:53 PM 70.2 °F 61.0 °F 73% 30.21 in 10.0 mi Calm Calm - N/A   Mostly Cloudy
8:14 PM 68.9 °F 60.4 °F 74% 30.22 in 10.0 mi Calm Calm - N/A   Mostly Cloudy
8:33 PM 67.5 °F 59.9 °F 77% 30.22 in 10.0 mi Calm Calm - N/A   Scattered Clouds
8:53 PM 64.4 °F 59.9 °F 85% 30.22 in 10.0 mi East 3.5 mph - N/A   Scattered Clouds
9:14 PM 65.5 °F 58.5 °F 78% 30.23 in 10.0 mi Calm Calm - N/A   Scattered Clouds
9:33 PM 65.5 °F 58.1 °F 77% 30.23 in 10.0 mi Calm Calm - N/A   Scattered Clouds
9:54 PM 64.6 °F 58.1 °F 79% 30.23 in 10.0 mi Calm Calm - N/A   Clear
10:13 PM 63.5 °F 57.9 °F 82% 30.23 in 7.0 mi Calm Calm - N/A   Clear
10:34 PM 62.8 °F 57.9 °F 84% 30.23 in 10.0 mi Calm Calm - N/A   Clear
10:54 PM 59.4 °F 56.5 °F 90% 30.24 in 10.0 mi Calm Calm - N/A   Clear
11:13 PM 58.6 °F 55.9 °F 91% 30.24 in 10.0 mi Calm Calm - N/A   Clear
11:34 PM 56.7 °F 54.7 °F 93% 30.24 in 7.0 mi Calm Calm - N/A   Clear
11:54 PM 55.6 °F 53.6 °F 93% 30.24 in 10.0 mi Calm Calm - N/A   Clear